SR5NLK-1 Weather Reports


time (UTC)temp
C
wind
direction
speed
KPH
gust
KPH
rain 1hr
cm
rain 24hr
cm
rain mn
cm
humidity
%
barometer
mb
20260507150227 15 315 8.0 11.3 0.00 0.00 0.00 68 1019.8
20260507145727 15 0 4.8 14.5 0.00 0.00 0.00 68 1084.7
20260507145227 15 22 3.2 17.7 0.00 0.00 0.00 68 964.2
20260507144826 15 247 6.4 17.7 0.00 0.00 0.00 68 943.1
20260507144728 15 270 11.3 14.5 0.00 0.00 0.00 68 900.4
20260507144227 15 292 4.8 11.3 0.00 0.00 0.00 68 1016.7
20260507143727 15 292 6.4 19.3 0.00 0.00 0.00 67 962.3
20260507143227 15 315 9.7 19.3 0.00 0.00 0.00 67 981.3
20260507142728 15 292 14.5 16.1 0.00 0.00 0.00 68 1094.1
20260507142236 15 292 6.4 16.1 0.00 0.00 0.00 68 1052.2
20260507142228 15 292 6.4 16.1 0.00 0.00 0.00 68 1052.2
20260507141728 15 315 6.4 20.9 0.00 0.00 0.00 68 1015.3
20260507141527 15 337 4.8 20.9 0.00 0.00 0.00 68 1007.3
20260507141228 15 292 9.7 16.1 0.00 0.00 0.00 68 968.3
20260507140728 15 292 8.0 19.3 0.00 0.00 0.00 68 976.1
20260507140228 15 292 14.5 24.1 0.00 0.00 0.00 67 972.4
20260507135728 16 292 11.3 22.5 0.00 0.00 0.00 67 965.2
20260507135228 16 315 9.7 17.7 0.00 0.00 0.00 67 982.8
20260507134728 16 337 6.4 16.1 0.00 0.00 0.00 68 965.3
20260507134227 16 315 12.9 17.7 0.00 0.00 0.00 68 952.9
20260507133728 16 292 16.1 17.7 0.00 0.00 0.00 68 1004.1
20260507133228 16 292 4.8 17.7 0.00 0.00 0.00 68 1010.4
20260507132728 16 292 8.0 20.9 0.00 0.00 0.00 69 968.6
20260507132228 15 292 16.1 16.1 0.00 0.00 0.00 70 977.8
20260507131728 15 292 4.8 17.7 0.00 0.00 0.00 70 1042.8
20260507131228 15 315 9.7 17.7 0.00 0.00 0.00 70 1016.4
20260507130927 15 292 17.7 19.3 0.00 0.00 0.00 71 1008.4
20260507130728 15 270 8.0 19.3 0.00 0.00 0.00 71 1067.8
20260507130228 15 315 8.0 17.7 0.00 0.00 0.00 72 1052.2
20260507125728 15 292 11.3 17.7 0.00 0.00 0.00 71 974.8
20260507125228 15 315 11.3 14.5 0.00 0.00 0.00 71 968.6
20260507124728 15 315 14.5 16.1 0.00 0.00 0.00 71 1039.7
20260507124228 15 292 12.9 19.3 0.00 0.00 0.00 73 996.9
20260507123728 15 270 6.4 17.7 0.00 0.00 0.00 73 966.1
20260507123627 15 270 4.8 17.7 0.00 0.00 0.00 73 962.3
20260507123228 15 270 6.4 20.9 0.00 0.00 0.00 73 888.0
20260507122728 15 270 16.1 17.7 0.00 0.00 0.00 73 976.0
20260507122228 15 292 11.3 20.9 0.00 0.00 0.00 73 971.8
20260507121728 15 247 17.7 19.3 0.00 0.00 0.00 73 1048.4
20260507121228 15 292 9.7 19.3 0.00 0.00 0.00 73 968.1
20260507120728 15 315 12.9 16.1 0.00 0.00 0.00 73 961.2
20260507120327 15 270 14.5 14.5 0.00 0.00 0.00 73 1052.2
20260507120228 15 247 4.8 14.5 0.00 0.00 0.00 73 1046.0
20260507115728 15 270 1.6 11.3 0.00 0.00 0.00 74 1016.6
20260507115228 15 270 4.8 12.9 0.00 0.00 0.00 73 1016.7
20260507114728 15 292 8.0 9.7 0.00 0.00 0.00 73 1042.8
20260507114228 15 270 6.4 8.0 0.00 0.00 0.00 73 1027.1
20260507113728 15 270 6.4 12.9 0.00 0.00 0.00 73 923.6
20260507113228 15 292 12.9 12.9 0.00 0.00 0.00 74 1046.0
20260507113027 15 0 6.4 9.7 0.00 0.00 0.00 74 1005.8
20260507112728 15 270 9.7 9.7 0.00 0.00 0.00 75 1019.7
20260507112228 15 292 3.2 8.0 0.00 0.00 0.00 77 979.2
20260507111728 14 337 3.2 12.9 0.00 0.00 0.00 78 1061.6
20260507111228 14 0 1.6 12.9 0.00 0.00 0.00 78 1004.1
20260507110728 14 315 6.4 12.9 0.00 0.00 0.00 78 1032.9
20260507110228 14 292 6.4 11.3 0.00 0.00 0.00 77 1094.1
20260507105727 14 292 6.4 12.9 0.00 0.00 0.00 77 1042.8
20260507105228 15 270 4.8 14.5 0.00 0.00 0.00 79 926.7
20260507104728 14 225 6.4 12.9 0.00 0.00 0.00 81 960.8
20260507104228 13 292 3.2 11.3 0.00 0.00 0.00 82 1049.1
20260507103728 13 292 6.4 12.9 0.00 0.00 0.00 82 1004.1
20260507103228 13 315 6.4 9.7 0.00 0.00 0.00 82 1062.7
20260507102728 13 270 3.2 6.4 0.00 0.00 0.00 82 1007.3
20260507102427 13 270 3.2 9.7 0.00 0.00 0.00 82 952.9
20260507102228 13 315 4.8 11.3 0.00 0.00 0.00 82 988.3
20260507101728 13 292 4.8 9.7 0.00 0.00 0.00 82 981.0
20260507101228 13 315 6.4 8.0 0.00 0.00 0.00 82 956.0
20260507100728 12 247 1.6 11.3 0.00 0.00 0.00 82 963.9
20260507100228 12 315 4.8 11.3 0.00 0.00 0.00 81 937.0
20260507095728 12 315 9.7 17.7 0.00 0.00 0.00 81 1026.0
20260507095228 13 337 12.9 17.7 0.00 0.00 0.00 80 1004.5
20260507095127 13 315 8.0 17.7 0.00 0.00 0.00 80 999.4
20260507095103 13 202 4.8 14.5 0.00 0.00 0.00 79 982.7
20260507094728 13 202 4.8 14.5 0.00 0.00 0.00 79 982.7
20260507094228 13 67 9.7 16.1 0.00 0.00 0.00 79 1042.3
20260507093728 13 270 3.2 16.1 0.00 0.00 0.00 78 1048.2
20260507093228 13 292 9.7 17.7 0.00 0.00 0.00 79 920.5
20260507092728 13 270 8.0 17.7 0.00 0.00 0.00 79 1038.3
20260507092228 13 315 6.4 17.7 0.00 0.00 0.00 79 1022.8
20260507091827 13 292 12.9 17.7 0.00 0.00 0.00 79 1094.0
20260507091728 13 292 17.7 17.7 0.00 0.00 0.00 79 970.1
20260507091228 13 247 8.0 12.9 0.00 0.00 0.00 80 1058.5
20260507090728 13 292 12.9 19.3 0.00 0.00 0.00 80 1037.0
20260507090228 13 0 4.8 17.7 0.00 0.00 0.00 79 953.7
20260507085728 14 292 12.9 16.1 0.00 0.00 0.00 79 987.3
20260507085228 14 292 6.4 14.5 0.00 0.00 0.00 80 997.8
20260507084728 14 270 4.8 17.7 0.00 0.00 0.00 81 1055.4
20260507084527 13 292 6.4 12.9 0.00 0.00 0.00 81 1039.7
20260507084228 13 202 3.2 9.7 0.00 0.00 0.00 81 1010.6
20260507083728 13 292 9.7 16.1 0.00 0.00 0.00 81 1045.9
20260507083228 13 292 16.1 16.1 0.00 0.00 0.00 81 1036.5
20260507082728 13 270 9.7 16.1 0.00 0.00 0.00 80 1024.5
20260507082228 14 292 12.9 12.9 0.00 0.00 0.00 79 997.9
20260507081728 14 315 8.0 14.5 0.00 0.00 0.00 79 1010.4
20260507081227 14 292 14.5 14.5 0.00 0.00 0.00 79 1016.5
20260507080728 15 292 6.4 11.3 0.00 0.00 0.00 78 965.7
20260507080228 15 270 8.0 12.9 0.00 0.00 0.00 78 997.8
20260507075728 15 315 12.9 12.9 0.00 0.00 0.00 78 1016.6
20260507075228 15 337 4.8 11.3 0.00 0.00 0.00 78 997.8
20260507074728 15 337 6.4 14.5 0.00 0.00 0.00 77 961.8
20260507074228 15 337 14.5 17.7 0.00 0.00 0.00 76 1007.3
20260507073927 15 315 9.7 16.1 0.00 0.00 0.00 76 1043.6
20260507073728 15 292 8.0 16.1 0.00 0.00 0.00 76 1055.4
20260507073353 15 292 4.8 16.1 0.00 0.00 0.00 76 1004.1
20260507073228 15 270 3.2 12.9 0.00 0.00 0.00 76 1061.6
20260507072728 15 292 4.8 16.1 0.00 0.00 0.00 76 1004.1
20260507072228 16 337 4.8 17.7 0.00 0.00 0.00 76 994.7
20260507071728 16 315 11.3 14.5 0.00 0.00 0.00 77 1016.3
20260507071228 16 315 14.5 16.1 0.00 0.00 0.00 77 1013.5
20260507070728 15 337 6.4 14.5 0.00 0.00 0.00 78 965.5
20260507070627 15 337 6.4 12.9 0.00 0.00 0.00 78 1013.3
20260507070228 15 292 11.3 12.9 0.00 0.00 0.00 79 1019.8
20260507065728 15 270 4.8 16.1 0.00 0.00 0.00 79 973.4
20260507065305 15 0 8.0 17.7 0.00 0.00 0.00 79 1049.1
20260507065228 15 0 8.0 17.7 0.00 0.00 0.00 79 1049.1
20260507064730 15 270 9.7 16.1 0.00 0.00 0.00 79 1046.0
20260507064228 15 292 14.5 19.3 0.00 0.00 0.00 80 1010.3
20260507063728 15 292 11.3 19.3 0.00 0.00 0.00 80 1058.5
20260507063327 15 292 16.1 19.3 0.00 0.00 0.00 79 1090.9
20260507063228 15 292 11.3 19.3 0.00 0.00 0.00 79 1001.0
20260507062729 15 292 14.5 19.3 0.00 0.00 0.00 78 1026.0
20260507062228 15 292 12.9 17.7 0.00 0.00 0.00 76 1022.8
20260507061728 15 292 8.0 12.9 0.00 0.00 0.00 76 1097.2
20260507061229 16 247 6.4 12.9 0.00 0.00 0.00 76 971.7
20260507060738 16 292 6.4 9.7 0.00 0.00 0.00 75 961.4
20260507060728 16 292 6.4 9.7 0.00 0.00 0.00 75 961.4
20260507060228 16 247 3.2 14.5 0.00 0.00 0.00 74 974.8
20260507060027 16 270 6.4 14.5 0.00 0.00 0.00 74 1013.5
20260507055729 16 270 6.4 12.9 0.00 0.00 0.00 73 1067.9
20260507055229 17 292 6.4 6.4 0.00 0.00 0.00 72 1002.7
20260507054728 17 292 6.4 11.3 0.00 0.00 0.00 71 1052.2
20260507054228 17 270 3.2 11.3 0.00 0.00 0.00 72 1046.0
20260507053728 17 270 6.4 6.4 0.00 0.00 0.00 72 1015.4
20260507053228 17 225 3.2 6.4 0.00 0.00 0.00 71 965.4
20260507052727 17 270 0.0 3.2 0.00 0.00 0.00 71 981.0
20260507052228 17 270 3.2 6.4 0.00 0.00 0.00 70 1039.7
20260507051728 17 292 4.8 4.8 0.00 0.00 0.00 69 1055.4
20260507051228 18 337 3.2 8.0 0.00 0.00 0.00 68 962.3
20260507050728 18 0 1.6 3.2 0.00 0.00 0.00 68 1010.4
20260507050228 19 270 1.6 11.3 0.00 0.00 0.00 68 1052.2
20260507045728 20 292 6.4 9.7 0.00 0.00 0.00 68 1046.0
20260507045428 20 292 6.4 9.7 0.00 0.00 0.00 69 1022.9
20260507045228 19 292 8.0 9.7 0.00 0.00 0.00 73 1055.4
20260507044729 18 270 4.8 9.7 0.00 0.00 0.00 78 1047.7
20260507044229 17 270 8.0 8.0 0.00 0.00 0.00 80 1001.0
20260507043729 16 292 6.4 6.4 0.00 0.00 0.00 82 1012.1
20260507043229 16 292 6.4 6.4 0.00 0.00 0.00 82 1036.5
20260507042729 15 292 3.2 4.8 0.00 0.00 0.00 83 1058.5
20260507042229 15 270 1.6 4.8 0.00 0.00 0.00 83 1046.0
20260507042128 15 292 1.6 4.8 0.00 0.00 0.00 83 962.3
20260507041729 15 270 1.6 3.2 0.00 0.00 0.00 83 1055.4
20260507041229 15 270 0.0 1.6 0.00 0.00 0.00 84 968.5
20260507040729 15 270 0.0 4.8 0.00 0.00 0.00 84 968.5
20260507040229 15 225 0.0 3.2 0.00 0.00 0.00 83 922.2
20260507035729 14 157 0.0 1.6 0.00 0.00 0.00 83 997.9
20260507035300 14 157 0.0 1.6 0.00 0.00 0.00 83 968.6
20260507035229 14 157 0.0 1.6 0.00 0.00 0.00 83 968.6
20260507034828 14 135 0.0 0.0 0.00 0.00 0.00 83 1061.6
20260507034729 14 135 0.0 0.0 0.00 0.00 0.00 83 971.7
20260507034229 14 225 0.0 0.0 0.00 0.00 0.00 84 982.8
20260507033729 14 112 0.0 0.0 0.00 0.00 0.00 84 1055.4
20260507033229 13 180 0.0 3.2 0.00 0.00 0.00 84 1001.0
20260507032734 11 157 0.0 3.2 0.00 0.00 0.00 83 1055.4
20260507032729 13 157 0.0 3.2 0.00 0.00 0.00 83 1055.4
20260507032301 13 180 1.6 4.8 0.00 0.00 0.00 83 1060.2
20260507032229 13 180 1.6 4.8 0.00 0.00 0.00 83 1060.2
20260507031729 13 270 3.2 6.4 0.00 0.00 0.00 83 1060.3
20260507031528 13 247 1.6 3.2 0.00 0.00 0.00 83 1012.2
20260507031229 13 225 3.2 3.2 0.00 0.00 0.00 83 1049.1
20260507030729 13 202 3.2 3.2 0.00 0.00 0.00 83 976.5
20260507030229 13 202 3.2 4.8 0.00 0.00 0.00 83 1016.5
20260507025729 13 247 0.0 4.8 0.00 0.00 0.00 83 959.2
20260507025229 13 270 1.6 4.8 0.00 0.00 0.00 83 1046.0
20260507024729 13 292 0.0 3.2 0.00 0.00 0.00 83 977.9
20260507024242 13 225 1.6 3.2 0.00 0.00 0.00 83 1013.5
20260507024228 13 225 1.6 3.2 0.00 0.00 0.00 83 1013.5
20260507023729 13 315 0.0 3.2 0.00 0.00 0.00 83 1081.5
20260507023229 13 0 1.6 3.2 0.00 0.00 0.00 83 1007.2
20260507022729 13 315 1.6 4.8 0.00 0.00 0.00 83 1010.4
20260507022229 13 270 0.0 4.8 0.00 0.00 0.00 82 1010.4
20260507021729 14 292 1.6 6.4 0.00 0.00 0.00 82 968.5
20260507021229 14 292 3.2 6.4 0.00 0.00 0.00 82 965.4
20260507020928 14 292 3.2 6.4 0.00 0.00 0.00 82 1010.4
20260507020729 14 292 3.2 6.4 0.00 0.00 0.00 81 974.8
20260507020229 14 315 3.2 4.8 0.00 0.00 0.00 81 1049.1
20260507015729 14 292 0.0 4.8 0.00 0.00 0.00 81 1061.5
20260507015445 14 0 4.8 4.8 0.00 0.00 0.00 81 1039.6
20260507015229 14 315 1.6 6.4 0.00 0.00 0.00 81 1013.5
20260507014729 14 337 1.6 6.4 0.00 0.00 0.00 81 965.4
20260507014229 14 0 4.8 4.8 0.00 0.00 0.00 81 1039.6
20260507013729 14 0 3.2 4.8 0.00 0.00 0.00 80 1097.2
20260507013628 14 315 1.6 4.8 0.00 0.00 0.00 80 1049.1
20260507013229 14 337 0.0 4.8 0.00 0.00 0.00 80 1081.5
20260507012729 14 315 3.2 8.0 0.00 0.00 0.00 80 1013.5
20260507012229 14 292 4.8 9.7 0.00 0.00 0.00 80 1004.1
20260507011729 14 315 4.8 9.7 0.00 0.00 0.00 80 1054.0
20260507011229 14 315 4.8 6.4 0.00 0.00 0.00 80 1013.5
20260507010729 14 270 4.8 11.3 0.00 0.00 0.00 79 1068.9
20260507010328 14 292 6.4 6.4 0.00 0.00 0.00 79 988.3
20260507010229 14 292 3.2 6.4 0.00 0.00 0.00 79 1076.9
20260507005729 14 22 3.2 9.7 0.00 0.00 0.00 79 965.4
20260507005229 15 315 9.7 9.7 0.00 0.00 0.00 78 971.6
20260507004729 15 270 4.8 14.5 0.00 0.00 0.00 78 1045.9
20260507004229 15 292 14.5 19.3 0.00 0.00 0.00 78 1058.5
20260507003729 15 22 4.8 17.7 0.00 0.00 0.00 78 1010.4
20260507003229 15 315 8.0 14.5 0.00 0.00 0.00 77 888.0
20260507003028 15 292 6.4 14.5 0.00 0.00 0.00 77 962.3
20260507002729 15 315 4.8 19.3 0.00 0.00 0.00 76 1058.5
20260507002229 15 315 12.9 22.5 0.00 0.00 0.00 75 990.1
20260507001729 15 292 4.8 16.1 0.00 0.00 0.00 74 1001.0
20260507001229 16 292 4.8 25.7 0.00 0.00 0.00 72 1042.8
20260507000730 16 315 12.9 19.3 0.00 0.00 0.00 70 1055.3
20260507000229 17 270 4.8 32.2 0.00 0.00 0.00 69 926.7
20260506235728 17 270 19.3 29.0 0.00 0.00 0.00 68 968.6
20260506235229 17 270 4.8 12.9 0.00 0.00 0.00 67 1046.0
20260506234729 16 270 12.9 57.9 0.00 0.00 0.00 67 1024.2
20260506234229 16 270 38.6 38.6 0.00 0.00 0.00 67 1022.8
20260506233729 16 270 11.3 25.7 0.00 0.00 0.00 66 1001.0
20260506233229 16 180 1.6 1.6 0.00 0.00 0.00 66 1052.2
20260506232729 16 157 0.0 0.0 0.00 0.00 0.00 66 1007.3
20260506232428 16 112 0.0 1.6 0.00 0.00 0.00 66 994.7
20260506232229 16 112 0.0 3.2 0.00 0.00 0.00 66 977.9
20260506231729 16 112 0.0 3.2 0.00 0.00 0.00 66 1001.0
20260506231229 16 112 1.6 3.2 0.00 0.00 0.00 66 1039.7
20260506230729 16 112 1.6 3.2 0.00 0.00 0.00 66 1052.2
20260506230229 16 135 1.6 1.6 0.00 0.00 0.00 66 1090.9
20260506225729 16 112 3.2 4.8 0.00 0.00 0.00 66 1045.9
20260506225229 16 135 0.0 6.4 0.00 0.00 0.00 66 952.9
20260506225128 16 135 0.0 6.4 0.00 0.00 0.00 66 1007.3
20260506224729 16 112 0.0 6.4 0.00 0.00 0.00 66 1050.8
20260506224229 16 112 3.2 6.4 0.00 0.00 0.00 66 959.2
20260506223729 16 112 3.2 6.4 0.00 0.00 0.00 66 1010.3
20260506223229 16 135 3.2 6.4 0.00 0.00 0.00 66 1049.1
20260506222730 16 135 3.2 4.8 0.00 0.00 0.00 66 1019.8
20260506222229 16 112 1.6 6.4 0.00 0.00 0.00 66 1097.2
20260506221828 16 135 4.8 4.8 0.00 0.00 0.00 66 1019.9
20260506221729 16 112 4.8 4.8 0.00 0.00 0.00 66 1049.1
20260506221229 16 135 3.2 3.2 0.00 0.00 0.00 66 1045.9
20260506220729 16 112 0.0 3.2 0.00 0.00 0.00 66 1052.2
20260506220229 16 157 0.0 6.4 0.00 0.00 0.00 66 1007.3
20260506215729 16 112 3.2 4.8 0.00 0.00 0.00 66 1046.0
20260506215229 16 112 1.6 1.6 0.00 0.00 0.00 66 1013.5
20260506214729 16 112 0.0 0.0 0.00 0.00 0.00 66 1039.7
20260506214528 16 135 0.0 0.0 0.00 0.00 0.00 65 1058.5
20260506214229 16 135 0.0 1.6 0.00 0.00 0.00 65 984.1
20260506213729 16 112 0.0 0.0 0.00 0.00 0.00 65 1013.5
20260506213229 16 45 0.0 0.0 0.00 0.00 0.00 64 962.3
20260506212729 16 45 0.0 0.0 0.00 0.00 0.00 64 1016.6
20260506212229 16 112 0.0 0.0 0.00 0.00 0.00 64 1100.3
20260506211729 16 112 0.0 1.6 0.00 0.00 0.00 63 1052.1
20260506211228 16 135 0.0 0.0 0.00 0.00 0.00 63 1016.6
20260506210729 16 112 0.0 3.2 0.00 0.00 0.00 63 1070.9
20260506210229 16 90 0.0 3.2 0.00 0.00 0.00 63 967.4
20260506205729 16 112 3.2 4.8 0.00 0.00 0.00 63 1055.4
20260506205229 17 135 4.8 4.8 0.00 0.00 0.00 62 1094.0
20260506205214 17 112 0.0 3.2 0.00 0.00 0.00 61 1045.9
20260506204729 17 112 1.6 4.8 0.00 0.00 0.00 62 971.7
20260506204229 17 112 0.0 3.2 0.00 0.00 0.00 61 1045.9
20260506203928 17 112 1.6 3.2 0.00 0.00 0.00 61 1049.1
20260506203729 17 135 3.2 3.2 0.00 0.00 0.00 61 1001.0
20260506203229 17 112 0.0 0.0 0.00 0.00 0.00 60 1010.4
20260506202729 17 135 0.0 3.2 0.00 0.00 0.00 60 1061.6
20260506202229 17 112 1.6 3.2 0.00 0.00 0.00 60 1055.4
20260506201729 17 90 0.0 3.2 0.00 0.00 0.00 59 1026.0
20260506201229 17 157 0.0 1.6 0.00 0.00 0.00 59 1095.8
20260506200729 18 112 0.0 1.6 0.00 0.00 0.00 59 1087.8
20260506200628 18 112 0.0 1.6 0.00 0.00 0.00 59 968.6
20260506200229 18 135 0.0 3.2 0.00 0.00 0.00 59 1025.9
20260506195729 18 112 0.0 1.6 0.00 0.00 0.00 58 1090.9
20260506195229 18 135 0.0 3.2 0.00 0.00 0.00 58 968.6
20260506194729 18 90 1.6 3.2 0.00 0.00 0.00 57 1052.2
20260506194230 18 112 3.2 3.2 0.00 0.00 0.00 57 968.6
20260506193729 18 135 0.0 0.0 0.00 0.00 0.00 56 956.0
20260506193328 18 112 0.0 0.0 0.00 0.00 0.00 56 1062.5
20260506193230 18 112 0.0 0.0 0.00 0.00 0.00 56 1052.1
20260506192729 18 112 0.0 0.0 0.00 0.00 0.00 55 1007.3
20260506192229 18 135 0.0 1.6 0.00 0.00 0.00 55 964.0
20260506191730 18 112 0.0 3.2 0.00 0.00 0.00 55 1102.0
20260506191229 18 90 3.2 3.2 0.00 0.00 0.00 54 1052.2
20260506190730 19 112 0.0 1.6 0.00 0.00 0.00 54 1042.8
20260506190230 19 112 0.0 0.0 0.00 0.00 0.00 53 968.6
20260506190029 19 135 0.0 0.0 0.00 0.00 0.00 53 1046.0
20260506185730 19 135 0.0 3.2 0.00 0.00 0.00 53 1046.0
20260506185231 20 135 3.2 3.2 0.00 0.00 0.00 52 1109.7
20260506184730 20 90 0.0 3.2 0.00 0.00 0.00 51 1007.3
20260506184230 20 112 3.2 3.2 0.00 0.00 0.00 51 1090.9
20260506183730 20 22 0.0 1.6 0.00 0.00 0.00 50 1042.8
20260506183230 20 337 0.0 3.2 0.00 0.00 0.00 50 1094.1
20260506182729 20 315 0.0 3.2 0.00 0.00 0.00 50 968.5
20260506182230 21 337 3.2 3.2 0.00 0.00 0.00 49 1087.8
20260506181730 21 315 0.0 3.2 0.00 0.00 0.00 48 965.4
20260506181230 21 292 0.0 3.2 0.00 0.00 0.00 48 1095.2
20260506180730 21 270 0.0 4.8 0.00 0.00 0.00 48 1097.2
20260506180230 22 315 4.8 8.0 0.00 0.00 0.00 47 1002.2
20260506175730 22 315 4.8 8.0 0.00 0.00 0.00 47 1013.1
20260506175429 22 315 6.4 8.0 0.00 0.00 0.00 47 997.8
20260506175230 22 315 8.0 9.7 0.00 0.00 0.00 47 1052.6
20260506174730 22 315 9.7 12.9 0.00 0.00 0.00 47 1039.7
20260506174230 22 292 4.8 11.3 0.00 0.00 0.00 46 1097.2
20260506173730 22 337 8.0 11.3 0.00 0.00 0.00 46 1049.1
20260506173230 23 292 6.4 9.7 0.00 0.00 0.00 46 1078.2
20260506172730 23 315 9.7 11.3 0.00 0.00 0.00 46 1001.0
20260506172230 23 292 11.3 11.3 0.00 0.00 0.00 46 997.9
20260506172129 23 292 8.0 12.9 0.00 0.00 0.00 46 1100.3
20260506171730 23 247 4.8 12.9 0.00 0.00 0.00 46 1090.9
20260506171230 23 292 4.8 12.9 0.00 0.00 0.00 46 1019.7
20260506170730 23 292 8.0 12.9 0.00 0.00 0.00 46 1079.2
20260506170230 23 315 12.9 12.9 0.00 0.00 0.00 46 920.5
20260506165730 23 270 3.2 16.1 0.00 0.00 0.00 45 1013.5
20260506165230 23 315 16.1 16.1 0.00 0.00 0.00 45 929.9
20260506164829 23 315 11.3 19.3 0.00 0.00 0.00 44 1016.5
20260506164730 23 292 19.3 19.3 0.00 0.00 0.00 44 1049.1
20260506164230 24 292 11.3 17.7 0.00 0.00 0.00 44 1007.2
20260506163730 24 270 9.7 14.5 0.00 0.00 0.00 43 1005.5
20260506163230 25 315 14.5 14.5 0.00 0.00 0.00 42 1019.8
20260506162730 25 270 4.8 24.1 0.00 0.00 0.00 42 965.4
20260506162230 25 270 9.7 20.9 0.00 0.00 0.00 42 971.7
20260506161730 25 292 9.7 16.1 0.00 0.00 0.00 42 923.6
20260506161529 25 270 8.0 14.5 0.00 0.00 0.00 42 929.8
20260506161230 25 0 3.2 17.7 0.00 0.00 0.00 42 952.2
20260506160730 25 0 6.4 17.7 0.00 0.00 0.00 42 1013.5
20260506160230 25 292 4.8 22.5 0.00 0.00 0.00 41 998.5
20260506155730 25 292 14.5 19.3 0.00 0.00 0.00 41 1001.0
20260506155230 25 292 4.8 9.7 0.00 0.00 0.00 41 1052.2
20260506154730 25 270 6.4 16.1 0.00 0.00 0.00 41 924.8
20260506154237 25 270 11.3 22.5 0.00 0.00 0.00 1046.0
20260506154229 25 270 11.3 22.5 0.00 0.00 0.00 42 1046.0
20260506153730 25 270 6.4 16.1 0.00 0.00 0.00 41 1039.6
20260506153230 25 270 4.8 16.1 0.00 0.00 0.00 41 1064.7
20260506152730 25 247 4.8 22.5 0.00 0.00 0.00 40 1049.1
20260506152230 26 247 11.3 20.9 0.00 0.00 0.00 39 1015.2
20260506151730 26 270 19.3 19.3 0.00 0.00 0.00 39 1046.0
20260506151230 26 270 9.7 22.5 0.00 0.00 0.00 38 1052.2
20260506150929 26 315 9.7 22.5 0.00 0.00 0.00 38 1042.8
20260506150730 26 270 11.3 20.9 0.00 0.00 0.00 37 1007.3